Terminal Aerodrome Forecast
Issued by NWS Northern Indiana

Home | Current Version | Previous Version | Graphics & Text | Print | Product List | Glossary On
Versions: 1 2 3 4 5 6 7 8 9 10 11
778
FTUS43 KIWX 211121
TAFFWA
TAF
KFWA 211121Z 2112/2212 02008KT P6SM BKN080
     FM220100 31003KT P6SM SKC=

USA.gov is the U.S. government's official web portal to all federal, state and local government web resources and services.